www.pogodaiklimat.ru

Погода и климат >> Архив погоды >> Австралия >> Geraldton Airport


ПОГОДА в Geraldton Airport

  • Прогноз погоды в Geraldton Airport
  • Монитор погоды в Geraldton Airport
  • Климат города

АРХИВ ПОГОДЫ в Geraldton Airport

Время (UTC), дата Ветер
(напр.,м/с)
 
Видим.   Явления Облачность Т
(С)
Тd
(С)
f
(%)
Тe
(С)
Тes
(С)
Комфортность P
(гПа)
Po
(гПа)
Тmin
(С)
Tmax
(С)
R
(мм)
R24
(мм)
S
(см)
10 18.05 Ю 5 н/о н/о +20.2 +12.2 60 +22 +22 комфорт 1023.2 1019.6
12 18.05 Ю 4 н/о н/о +15.8 +3.6 44 +15 +15 1024.3 1020.7
13 18.05 ЮВ 3 н/о н/о +16.1 +1.8 38 +16 +16 1024.5 1020.9 +27.8
15 18.05 В 5 н/о н/о +12.9 +1.6 46 +11 +11 1024.3 1020.7
16 18.05 Ю 3 н/о н/о +12.9 +1.9 47 +12 +12 1024.4 1020.8
18 18.05 В 4 н/о н/о +15.6 +2.7 42 +15 +15 1024.0 1020.4
19 18.05 СВ 6 н/о н/о +16.8 +1.7 36 +16 +16 1023.8 1020.2
21 18.05 СВ 7 н/о н/о +14.3 +2.2 44 +12 +12 1023.8 1020.2
22 18.05 СВ 5 н/о н/о +14.6 +1.8 42 +13 +13 1024.1 1020.5
00 19.05 СВ 8 н/о н/о +16.7 +1.2 35 +15 +15 1024.9 1021.3
01 19.05 СВ 10 н/о н/о +20.0 +1.0 28 +19 +19 1025.0 1021.4 +11.9
03 19.05 СВ 7 н/о н/о +24.0 +1.0 22 +23 +23 комфорт 1024.5 1020.9
04 19.05 С 6 н/о н/о +25.6 +1.0 20 +24 +24 комфорт 1023.8 1020.2
06 19.05 В 3 н/о н/о +27.0 -0.9 16 +25 +25 комфорт 1022.3 1018.7
07 19.05 ЮЗ 7 н/о н/о +25.1 +5.8 29 +25 +25 комфорт 1022.2 1018.6
09 19.05 Ю 7 н/о н/о +22.5 +8.6 41 +24 +24 комфорт 1022.2 1018.6
10 19.05 ЮВ 4 н/о н/о +19.1 +10.6 58 +20 +20 1022.7 1019.1
12 19.05 ЮВ 5 н/о н/о +15.5 +9.6 68 +14 +14 1023.7 1020.1
13 19.05 ЮВ 5 н/о н/о +14.1 +9.3 73 +13 +13 1024.2 1020.6 +27.6
15 19.05 ЮВ 3 н/о н/о +13.5 +5.2 57 +12 +12 1024.2 1020.6
16 19.05 В 4 н/о н/о +11.6 +1.3 49 +10 +10 1024.2 1020.6
18 19.05 СВ 2 н/о н/о +13.2 -0.8 38 +13 +13 1024.2 1020.6
19 19.05 В 6 н/о н/о +11.9 -0.6 42 +10 +10 1024.1 1020.5
21 19.05 СВ 2 н/о н/о +14.3 -0.5 36 +14 +14 1024.2 1020.6
22 19.05 З 1 н/о н/о +13.6 -0.8 37 +15 +15 1024.6 1021.0
00 20.05 СВ 6 н/о н/о +14.7 -0.2 36 +13 +13 1025.5 1021.9
01 20.05 С 8 н/о н/о +17.6 -0.2 30 +17 +17 1025.7 1022.1 +10.5
03 20.05 СВ 7 н/о н/о +24.7 -0.4 19 +23 +23 комфорт 1025.2 1021.6
04 20.05 СВ 5 н/о н/о +26.0 -2.6 15 +24 +24 комфорт 1024.4 1020.8
06 20.05 СВ 4 н/о н/о +27.2 -3.6 13 +24 +24 комфорт 1022.6 1019.0
07 20.05 Ю 5 н/о н/о +27.6 +4.6 23 +26 +26 жарко 1022.3 1018.7
09 20.05 Ю 7 н/о н/о +23.0 +6.3 34 +24 +24 комфорт 1022.5 1018.9
10 20.05 ЮВ 5 н/о н/о +19.2 +9.1 52 +20 +20 1023.0 1019.4
12 20.05 ЮВ 3 н/о н/о +14.4 +7.7 64 +14 +14 1023.8 1020.2
13 20.05 ЮВ 1 н/о н/о +12.7 +7.0 68 +13 +13 1024.2 1020.6 +28.6
15 20.05 В 8 н/о н/о +18.3 -2.0 25 +18 +18 1023.8 1020.2
16 20.05 В 7 н/о н/о +17.5 -2.2 26 +17 +17 1023.5 1019.9
18 20.05 СВ 5 н/о н/о +15.8 -2.2 29 +15 +15 1023.6 1020.0
19 20.05 СВ 6 н/о н/о +14.5 -2.4 31 +13 +13 1023.5 1019.9
21 20.05 СВ 5 н/о н/о +15.1 -0.2 35 +14 +14 1023.5 1019.9
22 20.05 СВ 2 н/о н/о +14.8 -0.9 34 +15 +15 1023.7 1020.1
00 21.05 СВ 8 н/о н/о +16.8 0.0 32 +16 +16 1024.8 1021.2
01 21.05 С 5 н/о н/о +20.1 +1.0 28 +20 +20 1025.2 1021.6 +12.3
03 21.05 С 8 н/о н/о +24.9 +1.1 21 +24 +24 комфорт 1024.4 1020.8
04 21.05 С 6 н/о н/о +25.8 +0.5 19 +24 +24 комфорт 1023.2 1019.6
06 21.05 В 4 н/о н/о +27.8 -1.2 15 +25 +25 комфорт 1021.2 1017.7
07 21.05 ЮЗ 5 н/о н/о +26.4 +0.9 19 +25 +25 комфорт 1020.9 1017.3
09 21.05 Ю 6 н/о н/о +23.3 +6.1 33 +24 +24 комфорт 1020.8 1017.2
10 21.05 Ю 4 н/о н/о +19.8 +9.7 52 +21 +21 комфорт 1021.6 1018.0
12 21.05 ЮВ 3 н/о н/о +16.5 +9.7 64 +16 +16 1022.4 1018.8
13 21.05 ЮВ 2 н/о н/о +13.8 +7.6 66 +14 +14 1022.8 1019.2 +28.5
15 21.05 СВ 4 н/о н/о +12.4 +3.1 53 +11 +11 1022.8 1019.2
16 21.05 СВ 4 н/о н/о +12.0 +1.3 48 +10 +10 1022.1 1018.5
18 21.05 С 2 н/о н/о +15.3 +0.3 36 +15 +15 1021.8 1018.2
19 21.05 С 5 н/о н/о +13.1 +1.1 44 +11 +11 1021.6 1018.0
21 21.05 С 6 н/о н/о +14.5 +1.1 40 +13 +13 1021.3 1017.7
22 21.05 С 7 н/о н/о +13.8 +0.8 41 +12 +12 1021.6 1018.0
00 22.05 СВ 7 н/о н/о +15.9 +1.2 37 +15 +15 1022.2 1018.7
01 22.05 СВ 8 н/о н/о +20.6 +1.5 28 +20 +20 1022.1 1018.5 +10.5
03 22.05 СВ 10 н/о н/о +27.2 +0.8 18 +25 +25 комфорт 1020.8 1017.2
04 22.05 СВ 9 н/о н/о +28.8 -0.4 15 +26 +26 жарко 1019.8 1016.2
06 22.05 С 6 н/о н/о +29.9 -2.6 12 +27 +27 жарко 1017.8 1014.2
07 22.05 СЗ 5 н/о н/о +29.7 -2.7 12 +27 +27 жарко 1017.6 1014.0
09 22.05 Ю 5 н/о н/о +25.7 +4.8 26 +25 +25 комфорт 1018.1 1014.5
10 22.05 ЮЗ 4 н/о н/о +21.5 +3.7 31 +22 +22 комфорт 1018.5 1014.9
12 22.05 ЮВ 4 н/о н/о +17.0 +5.3 46 +17 +17 1019.3 1015.7
13 22.05 ЮВ 2 н/о н/о +15.8 +8.1 60 +16 +16 1019.8 1016.2 +30.5
15 22.05 СВ 5 н/о н/о +14.8 -1.3 33 +14 +14 1019.8 1016.2
16 22.05 С 6 н/о н/о +17.1 -2.0 27 +16 +16 1019.6 1016.0
18 22.05 С 7 н/о н/о +15.1 -2.3 30 +14 +14 1018.6 1015.0
19 22.05 С 7 н/о н/о +15.1 -2.3 30 +14 +14 1018.3 1014.7
21 22.05 СВ 6 н/о н/о +12.6 -2.4 35 +10 +10 1018.0 1014.4
22 22.05 С 7 н/о н/о +13.4 -2.1 34 +11 +11 1018.0 1014.4
00 23.05 С 7 н/о н/о +16.3 -1.7 29 +15 +15 1018.2 1014.6
01 23.05 СВ 8 н/о н/о +19.2 -1.3 25 +19 +19 1018.3 1014.7 +11.7
03 23.05 С 7 н/о н/о +26.2 0.0 18 +24 +24 комфорт 1017.4 1013.8
04 23.05 С 5 н/о н/о +28.2 -0.9 15 +26 +26 жарко 1016.5 1012.9
06 23.05 З 6 н/о н/о +28.4 -0.7 15 +26 +26 жарко 1014.5 1010.9
07 23.05 З 6 н/о н/о +28.1 -0.9 15 +26 +26 жарко 1014.2 1010.6
09 23.05 ЮЗ 4 н/о н/о +24.7 +5.5 29 +24 +24 комфорт 1014.6 1011.0
10 23.05 Ю 3 н/о н/о +20.2 +7.2 43 +22 +22 комфорт 1014.7 1011.1
12 23.05 СВ 3 н/о н/о +14.8 +5.1 52 +14 +14 1015.4 1011.8
13 23.05 С 5 3000 м н/о +15.3 +4.1 47 +14 +14 1015.4 1011.8 +29.4
15 23.05 С 7 н/о н/о +14.3 +1.6 42 +12 +12 1015.1 1011.5
16 23.05 С 6 н/о н/о +14.9 +1.4 40 +13 +13 1014.7 1011.1
18 23.05 СВ 8 н/о н/о +13.5 +0.5 41 +11 +11 1013.0 1009.4
19 23.05 С 8 н/о н/о +14.9 -0.4 35 +13 +13 1012.5 1008.9
21 23.05 СВ 7 н/о н/о +15.4 -1.2 32 +14 +14 1011.9 1008.3
22 23.05 СВ 9 н/о н/о +15.3 -1.7 31 +13 +13 1012.0 1008.4
00 24.05 СВ 8 н/о н/о +17.8 -0.9 28 +17 +17 1011.7 1008.1
01 24.05 С 8 н/о н/о +23.4 +1.1 23 +22 +22 комфорт 1011.2 1007.6 +13.3
03 24.05 С 12 н/о н/о +28.4 +7.1 26 +28 +28 жарко 1009.6 1006.1
04 24.05 С 12 н/о 3/0 2000 м
[]
+29.4 +8.5 27 +29 +29 жарко 1008.0 1004.5
06 24.05 СЗ 8 н/о н/о +29.9 +11.4 32 +30 +30 жарко 1004.6 1001.1
07 24.05 СЗ 9 н/о 6/0
[]
+28.1 +14.7 44 +31 +31 душно 1003.8 1000.3
09 24.05 С 13 н/о н/о +26.7 +12.4 41 +28 +28 жарко 1001.7 998.2
10 24.05 С 14 н/о 10/10 300 м
[]
+22.3 +19.5 84 +28 +28 душно 1002.8 999.3
12 24.05 С 16 н/о н/о +20.9 +17.7 82 +24 +24 комфорт 1001.3 997.8
13 24.05 СЗ 11 3000 м туман 10/10 200 м
[]
+19.1 +17.9 93 +20 +20 1003.0 999.5 +31.4
15 24.05 З 12 н/о н/о +18.9 +15.2 79 +19 +19 1003.9 1000.4
16 24.05 З 12 н/о {туман} 10/10 600 м
[]
+18.8 +14.3 75 +19 +19 1003.9 1000.4
18 24.05 СЗ 10 н/о н/о +19.0 +12.5 66 +19 +19 1003.8 1000.3
19 24.05 СЗ 13 н/о {туман} 4/4 1000 м
[]
+18.8 +11.6 63 +18 +18 1003.7 1000.2
21 24.05 СЗ 9 н/о н/о +17.2 +12.5 74 +16 +16 1004.0 1000.5
22 24.05 З 11 3000 м 10/10 1000 м
[]
+15.8 +12.0 78 +14 +14 1004.7 1001.2
00 25.05 З 11 н/о н/о +17.2 +11.9 71 +16 +16 1006.3 1002.8
01 25.05 З 12 н/о 3/3 1000 м
[]
+18.5 +10.8 61 +18 +18 1006.8 1003.3 +15.2
03 25.05 З 10 н/о н/о +20.1 +10.2 53 +21 +21 комфорт 1006.6 1003.1
04 25.05 СЗ 11 н/о 5/5 1000 м
[]
+20.9 +9.8 49 +22 +22 комфорт 1006.3 1002.8
06 25.05 СЗ 8 н/о н/о +19.3 +12.3 64 +20 +20 1006.1 1002.6
07 25.05 З 11 4500 м 10/10 600 м
[]
+16.3 +13.2 82 +14 +14 1006.4 1002.9
09 25.05 СЗ 9 н/о н/о +18.0 +11.1 64 +17 +17 1006.7 1003.2
10 25.05 СЗ 9 н/о 8/8 600 м
[]
+16.8 +13.1 79 +15 +15 1007.6 1004.1

 

Местоположение метеостанции Geraldton Airport (Западная Австралия, Австралия): широта -28.80 долгота 114.70 высота над уровнем моря 35 м.

В архиве по умолчанию представлена погода в Geraldton Airport за последнюю неделю. Архивные данные за месяц целиком и за предыдущие месяцы, начиная с января 2011 года, Вы можете получить, выбрав интересующий диапазон дат из раскрывающегося списка и нажав кнопку "Ввод!".


*Определитесь, кто Вы:
робот инопланетянин человек

Внимание! Время в таблицах - всемирное. Для получения местного времени необходимо прибавить поправку, которая в Geraldton Airport равна 8 ч.

Смотрите также архив погоды в соседних городах и на ближайших метеорологических станциях:

Погода в Morawa Airport (Западная Австралия, Австралия) (136 км)
Погода в Rottnest Island Lighthouse (Западная Австралия, Австралия) (188 км)
Погода в Dalwallinu (Западная Австралия, Австралия) (252 км)
Погода в Mount Magnet Aero (Западная Австралия, Австралия) (316 км)
Погода в Gingin Aero (Западная Австралия, Австралия) (318 км)
Погода в Shark Bay Airport (Западная Австралия, Австралия) (341 км)
Погода в Bullsbrook Pearce Amo (Западная Австралия, Австралия) (343 км)
Погода в Wanneroo (Западная Австралия, Австралия) (344 км)
Погода в Mount Lawley Perth Metro (Западная Австралия, Австралия) (365 км)
Погода в Swanbourne (Западная Австралия, Австралия) (365 км)

Пояснения к столбцам:

Ветер - указаны скорость ветра в м/с - средняя за 10 мин, порывы в срок и между сроками (в фигурных скобках) и направление, откуда дует ветер: С - северный, СВ - северо-восточный, В - восточный, ЮВ - юго-восточный, Ю - южный, ЮЗ - юго-западный, З - западный, СЗ - северо-западный.
Видимость - горизонтальная дальность видимости в метрах или километрах. При видимости от 1 до 10 км при отсутствии осадков обычно наблюдается дымка, при ухудшении видимости до 1 км и менее - туман. В сухую погоду видимость может ухудшаться дымом, пылью или мглою.
Явления - указаны атмосферные явления, наблюдавшиеся в срок или в последний час перед сроком; фигурными скобками обозначены явления, наблюдавшиеся между сроками (за 1-3 часа до срока); квадратными скобками обозначены град или гололедные отложения с указанием их диаметра в мм.
Облачность - указаны через наклонную черту общая и нижняя облачность в баллах и высота нижней границы облаков в метрах; квадратными скобками обозначены формы облаков: Ci - перистые, Cs - перисто-слоистые, Cc - перисто-кучевые, Ac - высококучевые, As - высокослоистые, Sc - слоисто-кучевые, Ns - слоисто-дождевые, Cu - кучевые, Cb - кучево-дождевые. Подробнее классификацию облаков см. в Атласе облаков (PDF).
T - Температура воздуха - температура, измеренная на высоте 2 м над землей.
Td - Температура точки росы - температура, при понижении до которой содержащийся в воздухе водяной пар достигнет насыщения.
f - Относительная влажность воздуха - влажноcть воздуха, измеренная на высоте 2 м над землей.
Te - Эффективная температура - температура, которую ощущает одетый по сезону человек в тени. Характеристика душности погоды. При расчете учитывается влияние влажности воздуха и скорости ветра на теплоощущения человека.
Tes - Эффективная температура на солнце - температура, которую ощущает человек, с поправкой на солнечный нагрев. Характеристика знойности погоды. Зависит от высоты солнца над горизонтом, облачности и скорости ветра. Ночью, в пасмурную погоду, а также при ветре 12 м/с и более поправка равна нулю.
P - Атмосферное давление - приведенное к уровню моря атмосферное давление.
Po - Атмосферное давление - измеренное на уровне метеостанции атмосферное давление.
Tmin - Минимальная температура - минимум температуры воздуха на высоте 2 м над землей.
Tmax - Максимальная температура - максимум температуры воздуха на высоте 2 м над землей.
R - Количество осадков - Количество выпавших осадков за период времени, мм. При наведении курсора мыши на число - период времени, за который выпало указанное количество осадков.
R24 - Количество осадков - Количество выпавших осадков за 24 часа, мм.
S - Снежный покров - Высота снежного покрова, см. При наведении курсора мыши на число - состояние снежного покрова и степень покрытия местности в баллах.